{"data":{"norad_id":65468,"intl_designator":"2025-195L","name":"STARLINK-35033","alt_names":[],"object_type":"PAYLOAD","status":"ACTIVE","operator":null,"country":"US","launch_date":"2025-09-03","launch_site_code":"AFETR","launch_vehicle":null,"mission":null,"orbit_class":"UNKNOWN","rcs_meters":null,"size_class":null,"mass_kg":null,"dimensions":null,"purposes":["comms"],"wikipedia_slug":null,"has_3d_model":false,"image_url":null,"decayed_at":null,"tle_current":{"epoch":"2026-09-20T22:33:14.292000Z","epoch_age_seconds":76939,"freshness":"FRESH","line1":"1 65468U 25195L   26263.93974875  .00013766  00000+0  45442-3 0  9996","line2":"2 65468  53.1587  69.3931 0001014 101.0160 259.0955 15.31709636 59916","mean_motion":15.31709636,"eccentricity":0.0001014,"inclination_deg":53.1587,"raan_deg":69.3931,"arg_perigee_deg":101.016,"mean_anomaly_deg":259.0955,"bstar":0.00045442,"rev_number":5991,"period_min":94.012596523222,"perigee_km":470.01679774698,"apogee_km":471.40574417633,"semimajor_km":6848.8482709617,"source":"CELESTRAK","updated_at":"2026-09-21T09:00:35.615928Z"}}}